{"data":{"norad_id":64270,"intl_designator":"2025-120Q","name":"STARLINK-34219","alt_names":[],"object_type":"PAYLOAD","status":"ACTIVE","operator":null,"country":"US","launch_date":"2025-06-04","launch_site_code":"AFWTR","launch_vehicle":null,"mission":null,"orbit_class":"UNKNOWN","rcs_meters":null,"size_class":null,"mass_kg":null,"dimensions":null,"purposes":["comms"],"wikipedia_slug":null,"has_3d_model":false,"image_url":null,"decayed_at":null,"tle_current":{"epoch":"2026-09-20T09:16:24.156480Z","epoch_age_seconds":147851,"freshness":"FRESH","line1":"1 64270U 25120Q   26263.38639070  .00008345  00000+0  25784-3 0  9992","line2":"2 64270  53.1576 290.3207 0001387  85.7585 274.3576 15.34400662 73755","mean_motion":15.34400662,"eccentricity":0.0001387,"inclination_deg":53.1576,"raan_deg":290.3207,"arg_perigee_deg":85.7585,"mean_anomaly_deg":274.3576,"bstar":0.00025784,"rev_number":7375,"period_min":93.847717591769,"perigee_km":461.75244833589,"apogee_km":463.65009687271,"semimajor_km":6840.8382726043,"source":"CELESTRAK","updated_at":"2026-09-21T09:00:35.284371Z"}}}